Weather History for Knox, IN

Change the Weather History Date:

Sunday, January 6, 2013

  Actual Average (KVPZ) Record (KVPZ)
Temperature  
Mean Temperature 28 °F 24 °F  
Max Temperature 34 °F 31 °F 59 °F (2008)
Min Temperature 19 °F 17 °F -16 °F (2014)
Degree Days  
Heating Degree Days 38 41  
Month to date heating degree days 246  
Since 1 July heating degree days 2648  
Cooling Degree Days 0 0  
Month to date cooling degree days 0  
Year to date cooling degree days 0  
Moisture  
Dew Point 26 °F    
Average Humidity 85    
Maximum Humidity 93    
Minimum Humidity 79    
Precipitation  
Precipitation 0.00 in 0.05 in 0.05 in (2002)
Month to date precipitation 0.33  
Year to date precipitation 0.33  
Sea Level Pressure  
Sea Level Pressure 30.08 in    
Wind  
Wind Speed 13 mph (WSW)    
Max Wind Speed 23 mph    
Max Gust Speed 28 mph    
Visibility 9 miles    
Events      
T = Trace of Precipitation, MM = Missing Value Source: NWS Daily Summary

Daily Weather History Graph

Daily Weather History Graph

Search for Another Location

Airport:

Trip Planner

Search our weather history database for the weather conditions in past years. The results will help you decide how hot, cold, wet, or windy it might be!

Date:

Astronomy

Jan. 06, 2013 Rise Set
Actual Time 7:12 AM CST 4:32 PM CST
Civil Twilight 6:41 AM CST 5:03 PM CST
Nautical Twilight 6:07 AM CST 5:38 PM CST
Astronomical Twilight 5:33 AM CST 6:11 PM CST
Moon 1:24 AM CST (1/6) 12:01 PM CST (1/6)
Length of Visible Light 10h 22m
Length of Day
9h 20m
Waning Crescent, 33% of the Moon is Illuminated
Jan 6
Waning Crescent
Jan 11
New
Jan 18
First Quarter
Jan 26
Full
Feb 3
Last Quarter

Hourly Weather History & Observations

Time (CST) Temp. Windchill Dew Point Humidity Pressure Visibility Wind Dir Wind Speed Gust Speed Precip Events Conditions
12:15 AM 33.8 °F 24.3 °F 30.7 °F 89% 29.99 in 10.0 mi SSW 13.8 mph - N/A   Overcast
12:35 AM 33.8 °F 24.3 °F 30.9 °F 89% 29.98 in 10.0 mi SSW 13.8 mph - N/A   Overcast
12:55 AM 34.0 °F 24.2 °F 31.1 °F 89% 29.97 in 10.0 mi SSW 15.0 mph 19.6 mph N/A   Overcast
1:15 AM 34.0 °F 24.6 °F 31.1 °F 89% 29.97 in 10.0 mi SW 13.8 mph - N/A   Overcast
1:35 AM 34.0 °F 25.0 °F 31.1 °F 89% 29.96 in 10.0 mi SSW 12.7 mph - N/A   Overcast
1:55 AM 34.2 °F 25.2 °F 31.1 °F 89% 29.96 in 10.0 mi SSW 12.7 mph 18.4 mph N/A   Overcast
2:15 AM 34.2 °F 25.2 °F 31.1 °F 89% 29.96 in 10.0 mi SSW 12.7 mph - N/A   Overcast
2:35 AM 34.3 °F 25.5 °F 31.1 °F 88% 29.96 in 10.0 mi SW 12.7 mph - N/A   Overcast
2:55 AM 34.7 °F 26.4 °F 31.1 °F 87% 29.95 in 10.0 mi SW 11.5 mph 21.9 mph N/A   Overcast
3:15 AM 34.7 °F 25.9 °F 31.1 °F 87% 29.95 in 10.0 mi SW 12.7 mph 19.6 mph N/A   Overcast
3:35 AM 34.7 °F 25.9 °F 31.1 °F 87% 29.94 in 10.0 mi SW 12.7 mph - N/A   Overcast
3:55 AM 34.7 °F 25.1 °F 31.1 °F 87% 29.94 in 10.0 mi SW 15.0 mph 18.4 mph N/A   Overcast
4:15 AM 34.7 °F 25.5 °F 31.1 °F 87% 29.93 in 10.0 mi SW 13.8 mph - N/A   Overcast
4:35 AM 34.7 °F 25.9 °F 31.3 °F 87% 29.93 in 10.0 mi SW 12.7 mph - N/A   Overcast
4:55 AM 34.7 °F 25.5 °F 31.6 °F 89% 29.93 in 10.0 mi WSW 13.8 mph - N/A   Overcast
5:15 AM 34.7 °F 25.5 °F 31.6 °F 89% 29.93 in 10.0 mi WSW 13.8 mph - N/A   Overcast
5:35 AM 34.5 °F 25.3 °F 31.8 °F 90% 29.93 in 10.0 mi WSW 13.8 mph - N/A   Overcast
5:55 AM 34.3 °F 25.9 °F 32.0 °F 91% 29.93 in 10.0 mi WSW 11.5 mph 17.3 mph N/A   Overcast
6:15 AM 34.2 °F 25.7 °F 32.0 °F 92% 29.94 in 10.0 mi WSW 11.5 mph - N/A   Overcast
6:35 AM 34.2 °F 24.8 °F 32.0 °F 92% 29.94 in 7.0 mi WSW 13.8 mph - N/A   Overcast
6:55 AM 34.2 °F 23.6 °F 32.0 °F 92% 29.94 in 10.0 mi West 17.3 mph 21.9 mph N/A   Overcast
7:15 AM 33.8 °F 21.6 °F 31.3 °F 90% 29.95 in 10.0 mi West 23.0 mph 26.5 mph N/A   Overcast
7:35 AM 32.2 °F 20.4 °F 28.8 °F 87% 29.96 in 10.0 mi West 19.6 mph 25.3 mph N/A   Overcast
7:55 AM 30.0 °F 18.7 °F 25.9 °F 85% 29.98 in 10.0 mi West 16.1 mph 23.0 mph N/A   Mostly Cloudy
8:15 AM 28.2 °F 15.9 °F 23.9 °F 84% 29.98 in 10.0 mi West 17.3 mph 24.2 mph N/A   Scattered Clouds
8:35 AM 27.3 °F 14.0 °F 22.5 °F 82% 29.99 in 10.0 mi West 19.6 mph 25.3 mph N/A   Mostly Cloudy
8:55 AM 26.8 °F 13.3 °F 21.7 °F 81% 30.01 in 10.0 mi West 19.6 mph 27.6 mph N/A   Overcast
9:35 AM 25.5 °F 14.3 °F 21.2 °F 84% 30.03 in 10.0 mi West 12.7 mph - N/A   Overcast
9:55 AM 25.3 °F 13.6 °F 21.4 °F 85% 30.03 in 7.0 mi West 13.8 mph - N/A   Overcast
10:15 AM 24.8 °F 12.9 °F 21.2 °F 86% 30.05 in 7.0 mi West 13.8 mph 17.3 mph N/A   Overcast
10:35 AM 25.0 °F 13.6 °F 21.0 °F 85% 30.05 in 7.0 mi West 12.7 mph 19.6 mph N/A   Overcast
10:55 AM 25.2 °F 14.4 °F 21.2 °F 85% 30.05 in 7.0 mi West 11.5 mph - N/A   Overcast
11:15 AM 25.3 °F 15.3 °F 21.7 °F 86% 30.05 in 5.0 mi West 10.4 mph - N/A   Overcast
11:35 AM 25.7 °F 15.1 °F 21.6 °F 84% 30.05 in 7.0 mi West 11.5 mph - N/A   Overcast
11:55 AM 25.7 °F 14.0 °F 21.4 °F 84% 30.05 in 10.0 mi West 13.8 mph - N/A   Overcast
12:15 PM 25.7 °F 14.0 °F 20.8 °F 82% 30.06 in 10.0 mi West 13.8 mph 18.4 mph N/A   Overcast
12:35 PM 25.7 °F 14.6 °F 20.7 °F 81% 30.07 in 7.0 mi West 12.7 mph - N/A   Overcast
12:55 PM 25.9 °F 15.3 °F 20.8 °F 81% 30.07 in 7.0 mi West 11.5 mph 16.1 mph N/A   Overcast
1:15 PM 26.6 °F 16.2 °F 21.6 °F 81% 30.08 in 10.0 mi West 11.5 mph 17.3 mph N/A   Overcast
1:35 PM 27.3 °F 16.6 °F 21.9 °F 80% 30.09 in 10.0 mi West 12.7 mph - N/A   Overcast
1:55 PM 27.5 °F 18.6 °F 21.9 °F 80% 30.10 in 10.0 mi West 9.2 mph - N/A   Overcast
2:15 PM 27.9 °F 19.1 °F 22.3 °F 80% 30.11 in 10.0 mi West 9.2 mph - N/A   Overcast
2:55 PM 29.3 °F 19.1 °F 23.5 °F 79% 30.14 in 10.0 mi WNW 12.7 mph - N/A   Overcast
3:15 PM 29.3 °F 19.6 °F 23.7 °F 80% 30.15 in 10.0 mi West 11.5 mph - N/A   Overcast
3:35 PM 29.7 °F 21.3 °F 23.9 °F 79% 30.15 in 10.0 mi West 9.2 mph - N/A   Overcast
3:55 PM 29.8 °F 20.3 °F 24.1 °F 79% 30.17 in 10.0 mi West 11.5 mph - N/A   Overcast
4:15 PM 30.0 °F 22.4 °F 24.4 °F 80% 30.18 in 10.0 mi West 8.1 mph - N/A   Overcast
4:55 PM 30.2 °F 22.6 °F 24.4 °F 79% 30.20 in 10.0 mi West 8.1 mph - N/A   Overcast
5:15 PM 30.2 °F 22.6 °F 24.8 °F 80% 30.21 in 10.0 mi West 8.1 mph - N/A   Overcast
5:35 PM 30.9 °F 23.5 °F 25.3 °F 80% 30.22 in 10.0 mi West 8.1 mph - N/A   Overcast
5:55 PM 30.9 °F 25.2 °F 25.9 °F 82% 30.23 in 10.0 mi West 5.8 mph - N/A   Overcast
6:15 PM 31.1 °F 25.4 °F 26.4 °F 83% 30.25 in 10.0 mi West 5.8 mph - N/A   Overcast
6:35 PM 31.3 °F 24.7 °F 26.6 °F 83% 30.26 in 10.0 mi West 6.9 mph - N/A   Overcast
6:55 PM 31.6 °F 23.7 °F 26.8 °F 82% 30.26 in 10.0 mi West 9.2 mph - N/A   Overcast
7:15 PM 31.6 °F 23.7 °F 26.2 °F 80% 30.26 in 10.0 mi West 9.2 mph - N/A   Overcast
7:35 PM 31.5 °F 22.9 °F 26.2 °F 81% 30.28 in 10.0 mi West 10.4 mph - N/A   Overcast
7:55 PM 30.4 °F 21.5 °F 25.9 °F 83% 30.28 in 10.0 mi West 10.4 mph - N/A   Overcast
8:15 PM 30.0 °F 21.1 °F 25.7 °F 84% 30.29 in 10.0 mi West 10.4 mph - N/A   Overcast
8:55 PM 29.3 °F 19.6 °F 24.8 °F 83% 30.30 in 10.0 mi West 11.5 mph - N/A   Overcast
9:55 PM 28.4 °F 23.3 °F 24.6 °F 86% 30.31 in 10.0 mi WSW 4.6 mph - N/A   Overcast
10:15 PM 27.3 °F 19.9 °F 23.9 °F 87% 30.32 in 7.0 mi WSW 6.9 mph - N/A   Overcast
10:35 PM 26.1 °F - 22.8 °F 88% 30.32 in 7.0 mi Calm Calm - N/A   Scattered Clouds
10:55 PM 25.0 °F 20.7 °F 22.1 °F 89% 30.32 in 7.0 mi SSW 3.5 mph - N/A   Clear
11:35 PM 21.9 °F 15.7 °F 19.9 °F 92% 30.33 in 7.0 mi SW 4.6 mph - N/A   Clear
11:55 PM 19.2 °F 12.5 °F 17.6 °F 93% 30.33 in 5.0 mi SW 4.6 mph - N/A   Clear